Kozani, Greece

10:33 AM EEST on October 22, 2017 (GMT +0300)
Kozani

Weather History for LGKZ - May, 2014

Change the Weather History Date:

Wednesday, May 14, 2014

  Actual Average Record
Temperature  
Mean Temperature 59 °F -  
Max Temperature 68 °F - - ()
Min Temperature 50 °F - - ()
Degree Days  
Heating Degree Days 6    
Growing Degree Days 9 (Base 50)    
Moisture  
Dew Point 44 °F    
Average Humidity 65    
Maximum Humidity 94    
Minimum Humidity 30    
Precipitation  
Precipitation 0.00 in - - ()
Sea Level Pressure  
Sea Level Pressure 29.72 in    
Wind  
Wind Speed 5 mph ()    
Max Wind Speed 21 mph    
Max Gust Speed -    
Visibility 6.2 miles    
Events Rain    
T = Trace of Precipitation, MM = Missing Value Source: Averaged Metar Reports

Daily Weather History Graph

Daily Weather History Graph

Search for Another Location

Airport or City:

Trip Planner

Search our weather history database for the weather conditions in past years. The results will help you decide how hot, cold, wet, or windy it might be!

Date:

Astronomy

May. 14, 2014 Rise Set
Actual Time 6:18 AM EEST 8:40 PM EEST
Civil Twilight 5:47 AM EEST 9:11 PM EEST
Nautical Twilight 5:09 AM EEST 9:49 PM EEST
Astronomical Twilight 4:27 AM EEST 10:32 PM EEST
Moon 8:26 PM EEST (5/14) 6:03 AM EEST (5/14)
Length of Visible Light 15h 24m
Length of Day
14h 22m
Full, 100% of the Moon is Illuminated
May 14
Full
May 14
Full
May 21
Last Quarter
May 28
New
Jun 5
First Quarter

Hourly Weather History & Observations

Time (EEST) Temp. Dew Point Humidity Pressure Visibility Wind Dir Wind Speed Gust Speed Precip Events Conditions
1:50 AM 53.6 °F 50.0 °F 88% 29.86 in - North 6.9 mph - N/A   Unknown
2:20 AM 55.4 °F 50.0 °F 82% 29.86 in - Variable 2.3 mph - N/A Rain Light Rain
2:50 AM 53.6 °F 50.0 °F 88% 29.86 in - Variable 3.5 mph - N/A Rain Light Rain
3:50 AM 57.2 °F 50.0 °F 77% 29.83 in - Variable 2.3 mph - N/A Rain Light Rain
4:20 AM 53.6 °F 51.8 °F 94% 29.80 in - Variable 1.2 mph - N/A Rain Light Rain
4:50 AM 53.6 °F 50.0 °F 88% 29.80 in - Variable 3.5 mph - N/A Rain Light Rain
5:20 AM 53.6 °F 51.8 °F 94% 29.77 in - Calm Calm - N/A   Unknown
5:50 AM 51.8 °F 50.0 °F 94% 29.77 in - East 4.6 mph - N/A   Unknown
6:20 AM 55.4 °F 48.2 °F 77% 29.74 in - SSE 5.8 mph - N/A   Unknown
6:50 AM 55.4 °F 48.2 °F 77% 29.74 in - Variable 2.3 mph - N/A   Unknown
7:20 AM 55.4 °F 50.0 °F 82% 29.74 in - Variable 1.2 mph - N/A   Unknown
7:50 AM 59.0 °F 46.4 °F 63% 29.74 in 6.2 mi Calm Calm - N/A   Mostly Cloudy
8:50 AM 60.8 °F 48.2 °F 63% 29.71 in 6.2 mi SSW 4.6 mph - N/A   Mostly Cloudy
9:50 AM 64.4 °F 48.2 °F 56% 29.68 in 6.2 mi SSE 5.8 mph - N/A   Mostly Cloudy
10:50 AM 64.4 °F 46.4 °F 52% 29.65 in 6.2 mi SE 9.2 mph - N/A   Mostly Cloudy
12:50 PM 68.0 °F 50.0 °F 52% 29.62 in 6.2 mi Variable 5.8 mph - N/A   Mostly Cloudy
1:50 PM 60.8 °F 50.0 °F 68% 29.65 in 6.2 mi West 16.1 mph - N/A   Light Drizzle
2:50 PM 66.2 °F 46.4 °F 49% 29.65 in 6.2 mi West 15.0 mph - N/A   Mostly Cloudy
3:50 PM 66.2 °F 42.8 °F 43% 29.65 in 6.2 mi West 11.5 mph - N/A   Mostly Cloudy
4:50 PM 66.2 °F 33.8 °F 30% 29.62 in 6.2 mi WSW 20.7 mph - N/A   Mostly Cloudy
6:50 PM 60.8 °F 32.0 °F 34% 29.65 in 6.2 mi West 18.4 mph - N/A   Scattered Clouds
7:50 PM 59.0 °F 33.8 °F 39% 29.65 in 6.2 mi WSW 10.4 mph - N/A   Scattered Clouds
8:50 PM 57.2 °F 35.6 °F 44% 29.68 in 6.2 mi WNW 4.6 mph - N/A   Scattered Clouds
9:20 PM 55.4 °F 37.4 °F 51% 29.68 in - WNW 5.8 mph - N/A   Unknown
9:50 PM 53.6 °F 37.4 °F 54% 29.68 in - West 5.8 mph - N/A   Unknown
10:20 PM 53.6 °F 37.4 °F 54% 29.68 in - Variable 3.5 mph - N/A   Unknown
10:50 PM 51.8 °F 37.4 °F 58% 29.68 in - SW 8.1 mph - N/A   Unknown
11:20 PM 50.0 °F 37.4 °F 62% 29.71 in - West 6.9 mph - N/A   Unknown
11:50 PM 51.8 °F 37.4 °F 58% 29.71 in - West 9.2 mph - N/A   Unknown